TimeAKDT,TemperatureF,Dew PointF,Humidity,Sea Level PressureIn,VisibilityMPH,Wind Direction,Wind SpeedMPH,Gust SpeedMPH,PrecipitationIn,Events,Conditions,WindDirDegrees,DateUTC
12:06 AM,55.4,55.4,100,30.06,3.0,East,4.6,-,0.00,,Overcast,100,2013-08-05 08:06:00
12:20 AM,55.4,55.4,100,30.06,2.0,East,3.5,-,0.00,,Overcast,100,2013-08-05 08:20:00
12:39 AM,55.4,53.6,94,30.06,2.5,ESE,3.5,-,0.00,,Overcast,110,2013-08-05 08:39:00
12:54 AM,55.0,54.0,96,30.07,2.0,Calm,Calm,-,0.01,,Overcast,0,2013-08-05 08:54:00
1:40 AM,55.4,53.6,94,30.05,1.8,East,3.5,-,N/A,,Overcast,90,2013-08-05 09:40:00
1:54 AM,55.0,55.0,100,30.06,1.8,Calm,Calm,-,0.01,,Overcast,0,2013-08-05 09:54:00
2:18 AM,55.4,55.4,100,30.05,2.0,Calm,Calm,-,0.01,Rain,Light Rain,0,2013-08-05 10:18:00
2:37 AM,55.4,55.4,100,30.04,2.5,ESE,3.5,-,0.01,Rain,Light Rain,110,2013-08-05 10:37:00
2:54 AM,55.0,54.0,96,30.05,3.0,Calm,Calm,-,0.01,Rain,Light Rain,0,2013-08-05 10:54:00
3:01 AM,55.4,53.6,94,30.04,3.0,Calm,Calm,-,0.00,,Overcast,0,2013-08-05 11:01:00
3:31 AM,55.4,55.4,100,30.04,2.5,Calm,Calm,-,0.01,,Overcast,0,2013-08-05 11:31:00
3:54 AM,55.0,54.0,96,30.05,3.0,Calm,Calm,-,0.01,Rain,Light Rain,0,2013-08-05 11:54:00
4:16 AM,53.6,53.6,100,30.04,1.8,Calm,Calm,-,0.01,Rain,Light Rain,0,2013-08-05 12:16:00
4:28 AM,53.6,53.6,100,30.04,3.0,Calm,Calm,-,0.01,Rain,Light Rain,0,2013-08-05 12:28:00
4:44 AM,53.6,53.6,100,30.04,1.8,West,3.5,-,0.01,Rain,Light Rain,280,2013-08-05 12:44:00
4:54 AM,54.0,53.1,97,30.05,1.2,WNW,3.5,-,0.01,Rain,Light Rain,290,2013-08-05 12:54:00
5:06 AM,53.6,53.6,100,30.04,2.5,WNW,3.5,-,0.01,Rain,Light Rain,290,2013-08-05 13:06:00
5:17 AM,55.4,53.6,94,30.04,3.0,WNW,4.6,-,0.01,Rain,Light Rain,290,2013-08-05 13:17:00
5:26 AM,55.4,53.6,94,30.04,3.0,Calm,Calm,-,0.01,Rain,Light Rain,0,2013-08-05 13:26:00
5:33 AM,55.4,53.6,94,30.04,2.5,Calm,Calm,-,0.02,Rain,Light Rain,0,2013-08-05 13:33:00
5:50 AM,55.4,53.6,94,30.03,2.0,Calm,Calm,-,0.02,Rain,Light Rain,0,2013-08-05 13:50:00
5:54 AM,55.0,54.0,96,30.04,1.8,Calm,Calm,-,0.02,Rain,Light Rain,0,2013-08-05 13:54:00
6:00 AM,55.4,53.6,94,30.03,1.8,Calm,Calm,-,0.00,Rain,Light Rain,0,2013-08-05 14:00:00
6:22 AM,55.4,53.6,94,30.03,2.0,Calm,Calm,-,0.01,,Overcast,0,2013-08-05 14:22:00
6:30 AM,55.4,53.6,94,30.03,2.5,Calm,Calm,-,0.01,,Overcast,0,2013-08-05 14:30:00
6:38 AM,55.4,55.4,100,30.03,2.5,Calm,Calm,-,0.01,,Overcast,0,2013-08-05 14:38:00
6:54 AM,55.9,55.0,97,30.05,2.0,WNW,4.6,-,0.01,,Overcast,290,2013-08-05 14:54:00
7:06 AM,55.4,53.6,94,30.04,2.0,West,4.6,-,N/A,,Overcast,280,2013-08-05 15:06:00
7:54 AM,55.9,55.0,97,30.05,2.0,Calm,Calm,-,0.01,,Overcast,0,2013-08-05 15:54:00
8:01 AM,55.4,55.4,100,30.04,1.8,Calm,Calm,-,N/A,,Overcast,0,2013-08-05 16:01:00
8:04 AM,55.4,55.4,100,30.04,2.0,Calm,Calm,-,N/A,,Overcast,0,2013-08-05 16:04:00
8:12 AM,55.4,55.4,100,30.04,3.0,Calm,Calm,-,N/A,,Overcast,0,2013-08-05 16:12:00
8:54 AM,57.0,55.9,96,30.05,6.0,SSE,3.5,-,0.00,Rain,Light Rain,150,2013-08-05 16:54:00
9:15 AM,55.4,53.6,94,30.04,1.8,Calm,Calm,-,0.00,,Overcast,0,2013-08-05 17:15:00
9:20 AM,55.4,53.6,94,30.04,3.0,Calm,Calm,-,0.00,,Overcast,0,2013-08-05 17:20:00
9:33 AM,55.4,53.6,94,30.05,1.8,Calm,Calm,-,0.00,,Overcast,0,2013-08-05 17:33:00
9:43 AM,57.2,55.4,94,30.04,2.0,Calm,Calm,-,0.00,,Overcast,0,2013-08-05 17:43:00
9:51 AM,57.2,55.4,94,30.05,7.0,SSE,4.6,-,0.00,,Overcast,150,2013-08-05 17:51:00
9:54 AM,55.9,55.0,97,30.05,5.0,SSE,3.5,-,0.00,,Overcast,160,2013-08-05 17:54:00
9:59 AM,55.4,53.6,94,30.04,1.5,SSE,3.5,-,N/A,,Overcast,150,2013-08-05 17:59:00
10:07 AM,55.4,53.6,94,30.05,2.0,SE,3.5,-,N/A,,Overcast,140,2013-08-05 18:07:00
10:14 AM,55.4,55.4,100,30.05,9.0,SE,4.6,-,N/A,,Overcast,130,2013-08-05 18:14:00
10:24 AM,59.0,57.2,94,30.05,10.0,SE,4.6,-,N/A,,Overcast,130,2013-08-05 18:24:00
10:38 AM,57.2,57.2,100,30.05,10.0,SE,5.8,-,N/A,,Overcast,140,2013-08-05 18:38:00
10:54 AM,59.0,57.0,93,30.06,10.0,SE,4.6,-,N/A,,Overcast,140,2013-08-05 18:54:00
11:05 AM,59.0,57.2,94,30.05,10.0,SE,6.9,-,N/A,,Overcast,140,2013-08-05 19:05:00
11:30 AM,57.2,55.4,94,30.05,10.0,SE,8.1,-,N/A,,Overcast,140,2013-08-05 19:30:00
11:38 AM,57.2,55.4,94,30.05,10.0,SE,6.9,-,N/A,,Overcast,130,2013-08-05 19:38:00
11:47 AM,57.2,55.4,94,30.05,10.0,SE,6.9,-,N/A,,Overcast,130,2013-08-05 19:47:00
11:54 AM,59.0,55.9,90,30.06,10.0,SE,5.8,-,N/A,,Overcast,130,2013-08-05 19:54:00
12:35 PM,60.8,57.2,88,30.05,10.0,SE,8.1,-,N/A,,Overcast,140,2013-08-05 20:35:00
12:51 PM,60.8,55.4,82,30.05,10.0,SE,8.1,-,N/A,,Overcast,140,2013-08-05 20:51:00
12:54 PM,61.0,57.0,87,30.06,10.0,SE,8.1,-,N/A,,Overcast,140,2013-08-05 20:54:00
1:07 PM,60.8,55.4,82,30.05,10.0,SSE,8.1,-,N/A,,Overcast,150,2013-08-05 21:07:00
1:19 PM,62.6,55.4,77,30.05,10.0,SE,6.9,-,N/A,,Overcast,140,2013-08-05 21:19:00
1:34 PM,62.6,55.4,77,30.05,10.0,SE,9.2,-,N/A,,Overcast,140,2013-08-05 21:34:00
1:45 PM,62.6,57.2,82,30.05,10.0,SE,8.1,-,N/A,,Overcast,140,2013-08-05 21:45:00
1:54 PM,63.0,57.0,81,30.06,10.0,SSE,8.1,-,N/A,,Overcast,150,2013-08-05 21:54:00
2:54 PM,62.1,55.9,80,30.06,10.0,SE,9.2,-,N/A,,Overcast,130,2013-08-05 22:54:00
3:49 PM,62.6,57.2,82,30.05,10.0,SE,6.9,-,N/A,,Mostly Cloudy,130,2013-08-05 23:49:00
3:54 PM,62.1,57.0,84,30.06,10.0,SE,6.9,-,N/A,,Mostly Cloudy,130,2013-08-05 23:54:00
4:11 PM,62.6,57.2,82,30.05,10.0,SE,8.1,-,N/A,,Mostly Cloudy,130,2013-08-06 00:11:00
4:24 PM,60.8,55.4,82,30.05,10.0,SE,6.9,-,N/A,,Overcast,140,2013-08-06 00:24:00
4:54 PM,61.0,57.0,87,30.06,10.0,ESE,6.9,-,N/A,,Mostly Cloudy,120,2013-08-06 00:54:00
5:03 PM,62.6,57.2,82,30.05,10.0,SE,6.9,-,N/A,,Mostly Cloudy,130,2013-08-06 01:03:00
5:10 PM,60.8,57.2,88,30.05,10.0,SE,8.1,-,N/A,,Overcast,130,2013-08-06 01:10:00
5:24 PM,62.6,57.2,82,30.05,10.0,SE,6.9,-,N/A,,Overcast,130,2013-08-06 01:24:00
5:54 PM,62.1,57.0,84,30.06,10.0,SE,6.9,-,N/A,,Overcast,140,2013-08-06 01:54:00
6:54 PM,64.0,57.0,78,30.06,10.0,SE,4.6,-,N/A,,Overcast,130,2013-08-06 02:54:00
7:54 PM,62.1,57.0,84,30.05,10.0,East,5.8,-,N/A,,Overcast,100,2013-08-06 03:54:00
8:54 PM,62.1,55.9,80,30.06,10.0,ESE,6.9,-,N/A,,Overcast,110,2013-08-06 04:54:00
9:08 PM,60.8,55.4,82,30.05,10.0,ESE,4.6,-,N/A,,Scattered Clouds,110,2013-08-06 05:08:00
9:42 PM,60.8,55.4,82,30.06,10.0,East,4.6,-,N/A,,Mostly Cloudy,100,2013-08-06 05:42:00
9:54 PM,60.1,55.9,86,30.07,10.0,ESE,5.8,-,N/A,,Overcast,120,2013-08-06 05:54:00
10:54 PM,59.0,55.9,90,30.07,10.0,East,3.5,-,N/A,,Overcast,100,2013-08-06 06:54:00
11:54 PM,57.9,55.0,90,30.09,10.0,East,4.6,-,N/A,,Overcast,100,2013-08-06 07:54:00